Location: C�an Torras
(41.5052°N, 1.9280°E)
Time: 18:13:51
(UTC+00:00)

Hubble Space Telescope - Visible Passes

Search period start: 22 April 2021 00:00
Search period end: 02 May 2021 00:00
Orbit: 535 x 539 km, 28.5° (Epoch: 21 April)

Date Brightness Start Highest point End Pass type
(mag) Time Alt. Az. Time Alt. Az. Time Alt. Az.
22 Apr 3.0 20:23:37 10° SSW 20:24:30 12° SSW 20:24:30 12° SSW visible
23 Apr 2.9 20:12:32 10° SSW 20:14:20 13° S 20:14:20 13° S visible
24 Apr 2.8 20:01:34 10° SSW 20:03:30 13° S 20:04:06 13° S visible
25 Apr 2.9 19:50:39 10° SSW 19:52:28 13° S 19:53:49 11° SSE visible
26 Apr 3.0 19:39:51 10° SSW 19:41:24 12° S 19:42:57 10° SSE visible
27 Apr 3.1 19:29:15 10° SSW 19:30:21 11° S 19:31:28 10° S visible
